Weather Roundup
Issued by NWS

Home | Current Version | Previous Version | Graphics & Text | Print | Product List | Glossary Off
Versions: 1 2 3 4 5 6 7 8 9 10 11 12 13 14 15 16 17 18 19 20 21 22 23 24 25 26 27 28 29 30 31 32 33 34 35 36 37 38 39 40 41 42 43 44 45 46 47 48 49 50

000
NZUS93 KARX 061959
HRRWXR

CURRENT HOURLY OBSERVATIONS ACROSS
MUCH OF THE UPPER MISSISSIPPI VALLEY
NATIONAL WEATHER SERVICE LA CROSSE WI
300 PM CDT WED MAY 06 2015


...SOUTHEAST MINNESOTA...


CITY           SKY/WX    TMP DP  RH WIND       PRES   REMARKS
ROCHESTER      CLOUDY    71  60  68 SE21      29.97F
ROCHESTER/MAYO FAIR      71  60  67 SE15      29.97F
WINONA         CLOUDY    73  61  64 E12       30.00F
AUSTIN         CLOUDY    72  63  73 SE18G24   29.92F
ALBERT LEA     PTSUNNY   73  61  64 SE14G28   29.90F
DODGE CENTER   PTSUNNY   75  57  53 SE25G32   29.94F
PRESTON        CLOUDY    72  58  61 SE15      29.99F
OWATONNA       PTSUNNY   75  57  53 SE23G32   29.91F
FARIBAULT      PTSUNNY   77  57  50 SE24      29.91F
$$

...ELSEWHERE IN MINNESOTA...


CITY           SKY/WX    TMP DP  RH WIND       PRES   REMARKS
MINNEAPOLIS    PTSUNNY   73  58  59 E21       29.92F
INTNL FALLS    CLOUDY    69  55  60 SE14G21   29.96F
DULUTH         CLOUDY    58  50  75 E17       30.03F
RED WING       CLOUDY    73  59  60 SE12      29.96F
REDWOOD FALLS  RAIN      67  63  87 S20G37    29.82R FOG
MANKATO        CLOUDY    77  57  50 SE25G43   29.85F
WORTHINGTON    PTSUNNY   68  59  73 S25       29.80F
FAIRMONT       PTSUNNY   70  43  37 S22       29.84S
$$

...SOUTHWEST WISCONSIN...


CITY           SKY/WX    TMP DP  RH WIND       PRES   REMARKS
LA CROSSE      PTSUNNY   78  59  51 SE14      30.00F
PRAIRIE DU CHI MOSUNNY   77  59  53 SE12G18   30.01F
BOSCOBEL       MOSUNNY   80  61  52 VRB6      30.03F
LONE ROCK      NOT AVBL
PLATTEVILLE    MOSUNNY   76  64  66 SE12G17   30.06F
FORT MC COY    MOSUNNY   75  58  55 E9        30.05F
VIROQUA        FAIR      73  60  62 E13       30.05F
WIS DELLS      NOT AVBL
$$

...ELSEWHERE IN WISCONSIN...


CITY           SKY/WX    TMP DP  RH WIND       PRES   REMARKS
MILWAUKEE      PTSUNNY   55  50  83 E8        30.15F HAZE
MADISON        PTSUNNY   73  61  65 E12       30.09F
GREEN BAY      MOSUNNY   71  57  61 E7        30.14F
EAU CLAIRE     MOSUNNY   75  59  57 SE15G21   30.01F
BLACK RVR FLS  FAIR      75  56  50 SE6       30.04F
MEDFORD        CLOUDY    65  57  73 E8        30.10F
WAUSAU         CLOUDY    68  56  65 SE9       30.09F
WIS RAPIDS     PTSUNNY   75  56  51 S6        30.09F
MARSHFIELD     PTSUNNY   73  57  57 SE14      30.08F
RICE LAKE      PTSUNNY   69  56  63 SE13      30.04F
$$

...NORTHEAST IOWA...


CITY           SKY/WX    TMP DP  RH WIND       PRES   REMARKS
DECORAH        PTSUNNY   73  63  68 S14G21    30.00F
MASON CITY     CLOUDY    70  64  81 SE21      29.92F
CHARLES CITY   CLOUDY    75  64  69 SE23      29.94F
OELWEIN        MOSUNNY   79  61  53 SE26G36   29.97F
$$

...ELSEWHERE IN IOWA...


CITY           SKY/WX    TMP DP  RH WIND       PRES   REMARKS
DES MOINES     CLOUDY    77  57  50 S20G31    29.92F
IOWA CITY      MOSUNNY   81  57  43 SE20G31   29.98F
FORT DODGE     PTSUNNY   75  61  60 S21G31    29.89F
$$

...NORTHERN ILLINOIS...


CITY           SKY/WX    TMP DP  RH WIND       PRES   REMARKS
CHICAGO-OHARE  PTSUNNY   71  56  58 NE12      30.11F
CHICAGO-MIDWAY PTSUNNY   73  58  59 NE10      30.11F HAZE
MOLINE         MOSUNNY   83  52  34 S16G23    30.02F
ROCKFORD       PTSUNNY   79  60  52 S8        30.09F
PEORIA         PTSUNNY   84  51  31 S17       30.05F
$$

NOTE: "FAIR" INDICATES FEW OR NO CLOUDS BELOW 12,000 FEET WITH NO
SIGNIFICANT WEATHER AND/OR OBSTRUCTIONS TO VISIBILITY. WIND
SPEEDS ARE IN MILES-PER-HOUR.



USA.gov is the U.S. government's official web portal to all federal, state and local government web resources and services.